Quillayute, WA
on Friday, January 11, 2013

Friday
Previous Day Next Day
Daily Summary
 ActualAverageRecord
Temperature
Mean Temperature °F / °C 41°F / 5°C  
Max Temperature 41°F / 5°C 47°F / 8°C 55°F / 12°C (1983)
Min Temperature 25°F / -4°C 36°F / 2°C 21°F / -6°C (1993)
Degree Days
Heating Degree Days 32 24  
Month to date heating degree days 264  
Since 1 July heating degree days 2742  
Cooling Degree Days 0 0  
Month to date cooling degree days 0  
Year to date cooling degree days 0  
Moisture
Dew Point 27°F / -3°C   
Average Humidity 86    
Maximum Humidity 100    
Minimum Humidity 45    
Precipitation
Precipitation 0.00 in / 0.00 cm 0.50 in / 12.70 cm 4.59 in / 11.66 cm (2010)
Month to date precipitation 5.27  
Year to date precipitation 5.27  
Wind
Wind Speed 4 mph / 6 km/h   
Max Wind Speed 13 mph / 21 km/h   
Max Gust Speed 16 mph / 26 km/h   
Visibility 5 miles / 8 kilometers   
Events Fog   

Key: T is trace of precipitation, MM is missing value
Source: NWS Daily Summary
Time(PST)TemperatureDew PointHumidity Pressure Visibility Wind DirectionWind SpeedGust SpeedPrecipitationEvents Conditions
12:06 AM 28.4°F / -2.0°C 26.6°F / -3.0°C 93% 30.13 in / 1020.2 hPa 2.5 miles / 4.0 kilometers Calm Calm - N/A   Partly Cloudy
12:10 AM 26.6°F / -3.0°C 26.6°F / -3.0°C 100% 30.13 in / 1020.2 hPa 1.2 miles / 2.0 kilometers Calm Calm - N/A   Scattered Clouds
12:17 AM 26.6°F / -3.0°C 26.6°F / -3.0°C 100% 30.14 in / 1020.5 hPa 1.0 miles / 1.6 kilometers Calm Calm - N/A   Mist
12:26 AM 26.6°F / -3.0°C 26.6°F / -3.0°C 100% 30.14 in / 1020.5 hPa 0.5 miles / 0.8 kilometers Calm Calm - N/A Fog Light Freezing Fog
12:33 AM 26.6°F / -3.0°C 26.6°F / -3.0°C 100% 30.14 in / 1020.5 hPa 1.8 miles / 2.8 kilometers Calm Calm - N/A   Partly Cloudy
12:35 AM 26.6°F / -3.0°C 26.6°F / -3.0°C 100% 30.14 in / 1020.5 hPa 4.0 miles / 6.4 kilometers ENE 3.5 mph / 5.6 km/h - N/A   Partly Cloudy
12:53 AM 26.1°F / -3.3°C 25.0°F / -3.9°C 96% 30.15 in / 1020.9 hPa 6.0 miles / 9.7 kilometers Calm Calm - N/A   Clear
1:53 AM 28.0°F / -2.2°C 27.0°F / -2.8°C 96% 30.16 in / 1021.2 hPa 6.0 miles / 9.7 kilometers NE 3.5 mph / 5.6 km/h - N/A   Clear
2:53 AM 27.0°F / -2.8°C 26.1°F / -3.3°C 96% 30.17 in / 1021.6 hPa 6.0 miles / 9.7 kilometers Calm Calm - N/A   Clear
3:53 AM 28.0°F / -2.2°C 27.0°F / -2.8°C 96% 30.18 in / 1021.9 hPa 6.0 miles / 9.7 kilometers North 5.8 mph / 9.3 km/h - N/A   Clear
4:53 AM 27.0°F / -2.8°C 27.0°F / -2.8°C 100% 30.18 in / 1021.8 hPa 6.0 miles / 9.7 kilometers Calm Calm - N/A   Clear
5:53 AM 26.1°F / -3.3°C 25.0°F / -3.9°C 96% 30.19 in / 1022.3 hPa 6.0 miles / 9.7 kilometers Calm Calm - N/A   Clear
6:53 AM 27.0°F / -2.8°C 26.1°F / -3.3°C 96% 30.22 in / 1023.3 hPa 6.0 miles / 9.7 kilometers NNW 4.6 mph / 7.4 km/h - N/A   Clear
7:53 AM 28.0°F / -2.2°C 27.0°F / -2.8°C 96% 30.25 in / 1024.3 hPa 6.0 miles / 9.7 kilometers North 5.8 mph / 9.3 km/h - N/A   Clear
8:53 AM 30.0°F / -1.1°C 28.0°F / -2.2°C 92% 30.27 in / 1025.1 hPa 5.0 miles / 8.0 kilometers North 5.8 mph / 9.3 km/h - N/A   Clear
9:53 AM 33.1°F / 0.6°C 28.9°F / -1.7°C 85% 30.29 in / 1025.5 hPa 5.0 miles / 8.0 kilometers Variable 3.5 mph / 5.6 km/h - N/A   Clear
10:53 AM 37.0°F / 2.8°C 28.0°F / -2.2°C 70% 30.30 in / 1025.9 hPa 5.0 miles / 8.0 kilometers North 5.8 mph / 9.3 km/h - N/A   Haze
11:53 AM 39.2°F / 4.0°C 23.0°F / -5.0°C 52% 30.28 in / 1025.3 hPa 5.0 miles / 8.0 kilometers NNE 8.1 mph / 13.0 km/h - N/A   Haze
12:53 PM 39.9°F / 4.4°C 21.9°F / -5.6°C 49% 30.28 in / 1025.4 hPa 5.0 miles / 8.0 kilometers ENE 10.4 mph / 16.7 km/h - N/A   Haze
1:53 PM 41.0°F / 5.0°C 21.0°F / -6.1°C 45% 30.28 in / 1025.4 hPa 5.0 miles / 8.0 kilometers NE 6.9 mph / 11.1 km/h - N/A   Haze
2:53 PM 39.9°F / 4.4°C 21.0°F / -6.1°C 47% 30.29 in / 1025.7 hPa 5.0 miles / 8.0 kilometers Calm Calm - N/A   Haze
3:53 PM 35.1°F / 1.7°C 28.9°F / -1.7°C 78% 30.30 in / 1025.8 hPa 5.0 miles / 8.0 kilometers Calm Calm - N/A   Haze
4:53 PM 32.0°F / 0.0°C 28.9°F / -1.7°C 88% 30.30 in / 1026.0 hPa 5.0 miles / 8.0 kilometers ENE 3.5 mph / 5.6 km/h - N/A   Clear
5:53 PM 30.9°F / -0.6°C 28.9°F / -1.7°C 92% 30.31 in / 1026.3 hPa 6.0 miles / 9.7 kilometers Calm Calm - N/A   Clear
6:53 PM 30.9°F / -0.6°C 28.0°F / -2.2°C 89% 30.31 in / 1026.4 hPa 6.0 miles / 9.7 kilometers ENE 3.5 mph / 5.6 km/h - N/A   Mostly Cloudy
7:38 PM 30.2°F / -1.0°C 26.6°F / -3.0°C 86% 30.30 in / 1026.0 hPa 6.0 miles / 9.7 kilometers ENE 5.8 mph / 9.3 km/h - N/A   Haze
7:53 PM 30.9°F / -0.6°C 27.0°F / -2.8°C 85% 30.30 in / 1026.1 hPa 6.0 miles / 9.7 kilometers East 5.8 mph / 9.3 km/h - N/A   Partly Cloudy
8:53 PM 30.0°F / -1.1°C 27.0°F / -2.8°C 88% 30.30 in / 1025.9 hPa 6.0 miles / 9.7 kilometers ENE 4.6 mph / 7.4 km/h - N/A   Clear
9:53 PM 30.0°F / -1.1°C 27.0°F / -2.8°C 88% 30.30 in / 1026.0 hPa 6.0 miles / 9.7 kilometers ENE 4.6 mph / 7.4 km/h - N/A   Clear
10:53 PM 30.0°F / -1.1°C 27.0°F / -2.8°C 88% 30.30 in / 1026.1 hPa 6.0 miles / 9.7 kilometers East 4.6 mph / 7.4 km/h - N/A   Clear
11:53 PM 28.9°F / -1.7°C 27.0°F / -2.8°C 92% 30.31 in / 1026.3 hPa 6.0 miles / 9.7 kilometers ENE 3.5 mph / 5.6 km/h - N/A   Partly Cloudy
Moon Phase
Jan. 11 Jan. 18 Jan. 26 Feb. 03 Feb. 10
Sunrise:08:05 AM (PST) Moon Rise:07:39 AM (PST)1/11
Sunset:04:48 PM (PST) Moon Set:05:17 PM (PST)1/11

Copyright © 2014 The Weather Underground, Inc.